This is the latest recevied weather packets stored in our database for station/object DM4XI-13. If no packets are shown the sender has not sent any weather packets the latest 10 day(s).
| Time | Temp. | Humidity | Pressure | Rain* | Wind** | Luminosity | Snow |
|---|---|---|---|---|---|---|---|
| 1777386580 | 20.56° C | 30% | 1015.9 hPa | 0 mm | 0.89 m/s, 346° | 384 W/m² | - |
| 1777386519 | 20.56° C | 29% | 1015.9 hPa | 0 mm | 2.68 m/s, 29° | 386 W/m² | - |
| 1777386458 | 20.56° C | 29% | 1015.9 hPa | 0 mm | 0.45 m/s, 138° | 389 W/m² | - |
| 1777386397 | 20.56° C | 28% | 1016.1 hPa | 0 mm | 2.24 m/s, 186° | 392 W/m² | - |
| 1777386336 | 20.56° C | 28% | 1015.9 hPa | 0 mm | 0.89 m/s, 194° | 393 W/m² | - |
| 1777386274 | 20.56° C | 28% | 1015.9 hPa | 0 mm | 0.45 m/s, 209° | 394 W/m² | - |
| 1777386214 | 20.56° C | 27% | 1015.9 hPa | 0 mm | 2.24 m/s, 340° | 396 W/m² | - |
| 1777386153 | 20.56° C | 28% | 1016 hPa | 0 mm | 1.34 m/s, 9° | 398 W/m² | - |
| 1777386092 | 20.56° C | 29% | 1016 hPa | 0 mm | 0.45 m/s, 106° | 401 W/m² | - |
| 1777386031 | 20.56° C | 30% | 1016 hPa | 0 mm | 0.45 m/s, 253° | 404 W/m² | - |
| 1777385970 | 20° C | 29% | 1016 hPa | 0 mm | 0.45 m/s, 352° | 404 W/m² | - |
| 1777385909 | 20° C | 30% | 1015.9 hPa | 0 mm | 0.45 m/s, 345° | 406 W/m² | - |
| 1777385848 | 20.56° C | 29% | 1015.9 hPa | 0 mm | 0.89 m/s, 26° | 409 W/m² | - |
| 1777385787 | 20.56° C | 29% | 1015.9 hPa | 0 mm | 1.34 m/s, 174° | 412 W/m² | - |
| 1777385726 | 20.56° C | 29% | 1015.8 hPa | 0 mm | 1.79 m/s, 134° | 412 W/m² | - |
| 1777385665 | 20.56° C | 28% | 1016.1 hPa | 0 mm | 0.89 m/s, 136° | 414 W/m² | - |
| 1777385604 | 20.56° C | 29% | 1015.9 hPa | 0 mm | 0.89 m/s, 96° | 416 W/m² | - |
| 1777385542 | 20.56° C | 29% | 1016 hPa | 0 mm | 0.89 m/s, 167° | 419 W/m² | - |
| 1777385482 | 20° C | 27% | 1015.9 hPa | 0 mm | 0.45 m/s, 229° | 422 W/m² | - |
| 1777385420 | 20° C | 28% | 1016 hPa | 0 mm | 0.45 m/s, 223° | 424 W/m² | - |
| 1777385360 | 20° C | 29% | 1016 hPa | 0 mm | 0.89 m/s, 0° | 427 W/m² | - |
| 1777385298 | 20° C | 29% | 1016 hPa | 0 mm | 0.89 m/s, 134° | 429 W/m² | - |
| 1777385238 | 20° C | 29% | 1016 hPa | 0 mm | 1.79 m/s, 314° | 430 W/m² | - |
| 1777385177 | 20.56° C | 28% | 1015.9 hPa | 0 mm | 1.34 m/s, 138° | 432 W/m² | - |
| 1777385115 | 20.56° C | 28% | 1016 hPa | 0 mm | 1.79 m/s, 359° | 435 W/m² | - |
* Rain latest hour (hover to see other rain measurements)
** Current wind speed in m/s (hover to see current wind gust speed)